Weather History for McCall, ID

Change the Weather History Date:

Tuesday, August 6, 2013

  Actual Average Record
Temperature  
Mean Temperature 66 °F 62 °F  
Max Temperature 84 °F 80 °F 93 °F (1990)
Min Temperature 47 °F 43 °F 29 °F (1969)
Degree Days  
Heating Degree Days 0 4  
Month to date heating degree days 22 24  
Since 1 June heating degree days 302 541  
Since 1 July heating degree days 39 174  
Cooling Degree Days 1 1  
Month to date cooling degree days 3 6  
Year to date cooling degree days 126 22  
Since 1 June cooling degree days 126 22  
Growing Degree Days 16 (Base 50)    
Moisture  
Dew Point 38 °F    
Average Humidity 45    
Maximum Humidity 77    
Minimum Humidity 12    
Precipitation  
Precipitation 0.00 in 0.02 in 0.50 in (2009)
Month to date precipitation 0.01 0.09  
Year to date precipitation 11.26 12.45  
Sea Level Pressure  
Sea Level Pressure 29.95 in    
Wind  
Wind Speed 3 mph (North)    
Max Wind Speed 15 mph    
Max Gust Speed 20 mph    
Visibility 10 miles    
Events      
T = Trace of Precipitation, MM = Missing Value Source: NWS Daily Summary

Daily Weather History Graph

Daily Weather History Graph

Search for Another Location

Airport:

Trip Planner

Search our weather history database for the weather conditions in past years. The results will help you decide how hot, cold, wet, or windy it might be!

Date:

Astronomy

Aug. 06, 2013 Rise Set
Actual Time 6:36 AM MDT 9:03 PM MDT
Civil Twilight 6:03 AM MDT 9:36 PM MDT
Nautical Twilight 5:21 AM MDT 10:17 PM MDT
Astronomical Twilight 4:35 AM MDT 11:03 PM MDT
Moon 6:34 AM MDT (8/6) 8:36 PM MDT (8/6)
Length of Visible Light 15h 33m
Length of Day
14h 27m
Waning Crescent, 0% of the Moon is Illuminated
Aug 6
Waning Crescent
Aug 6
New
Aug 14
First Quarter
Aug 20
Full
Aug 28
Last Quarter

Hourly Weather History & Observations

Time (MDT) Temp. Dew Point Humidity Pressure Visibility Wind Dir Wind Speed Gust Speed Precip Events Conditions
12:51 AM 68.0 °F 42.1 °F 39% 29.91 in 10.0 mi North 6.9 mph - N/A   Scattered Clouds
1:51 AM 64.0 °F 43.0 °F 46% 29.92 in 10.0 mi North 4.6 mph - N/A   Scattered Clouds
2:51 AM 60.1 °F 45.0 °F 57% 29.93 in 10.0 mi Calm Calm - N/A   Clear
3:51 AM 59.0 °F 45.0 °F 60% 29.93 in 10.0 mi North 4.6 mph - N/A   Clear
4:51 AM 57.0 °F 44.1 °F 62% 29.94 in 10.0 mi North 5.8 mph - N/A   Clear
5:51 AM 55.9 °F 44.1 °F 64% 29.95 in 10.0 mi North 5.8 mph - N/A   Clear
6:51 AM 48.9 °F 41.0 °F 74% 29.98 in 10.0 mi Calm Calm - N/A   Clear
7:51 AM 53.1 °F 43.0 °F 69% 29.99 in 10.0 mi Calm Calm - N/A   Clear
8:51 AM 60.1 °F 44.1 °F 55% 30.00 in 10.0 mi South 3.5 mph - N/A   Clear
9:51 AM 64.9 °F 46.0 °F 50% 30.00 in 10.0 mi Calm Calm - N/A   Clear
10:51 AM 70.0 °F 43.0 °F 38% 29.99 in 10.0 mi Calm Calm - N/A   Clear
11:51 AM 75.0 °F 37.0 °F 25% 29.98 in 10.0 mi Calm Calm - N/A   Clear
12:51 PM 78.1 °F 33.1 °F 19% 29.96 in 10.0 mi North 4.6 mph - N/A   Clear
1:51 PM 80.1 °F 24.1 °F 13% 29.96 in 10.0 mi Variable 6.9 mph - N/A   Clear
2:51 PM 81.0 °F 30.9 °F 16% 29.96 in 10.0 mi Calm Calm - N/A   Clear
3:51 PM 81.0 °F 30.9 °F 16% 29.95 in 10.0 mi NE 8.1 mph - N/A   Clear
4:51 PM 82.0 °F 25.0 °F 12% 29.93 in 10.0 mi Calm Calm - N/A   Clear
5:51 PM 84.0 °F 27.0 °F 13% 29.92 in 10.0 mi WNW 8.1 mph - N/A   Clear
6:51 PM 82.0 °F 28.9 °F 14% 29.93 in 10.0 mi Calm Calm - N/A   Clear
7:51 PM 81.0 °F 32.0 °F 17% 29.92 in 10.0 mi NNW 6.9 mph - N/A   Clear
8:51 PM 77.0 °F 35.1 °F 22% 29.91 in 10.0 mi North 6.9 mph - N/A   Clear
9:51 PM 72.0 °F 36.0 °F 27% 29.92 in 10.0 mi North 8.1 mph - N/A   Clear
10:51 PM 64.0 °F 39.9 °F 41% 29.94 in 10.0 mi Calm Calm - N/A   Clear
11:51 PM 64.0 °F 43.0 °F 46% 29.94 in 10.0 mi North 4.6 mph - N/A   Clear